Regional Weather Roundup
Issued by NWS

Home | Current Version | Previous Version | Graphics & Text | Print | Product List | Glossary On
Versions: 1 2 3 4 5 6 7 8 9 10 11 12 13 14 15 16 17 18 19 20 21 22 23 24 25 26 27 28 29 30 31 32 33 34 35 36 37 38 39 40 41 42 43 44 45 46 47 48 49 50
000
ASUS43 KOAX 122110
RWRNE

WEATHER ROUNDUP FOR NEBRASKA
NATIONAL WEATHER SERVICE OMAHA NE
400 PM CDT SAT JUL 12 2014

NOTES: SATELLITE DATA IS BEING USED TO AUGMENT CLOUD COVER ABOVE
       12000 FEET.
       "FAIR" INDICATES FEW OR NO CLOUDS BELOW 12,000 FEET WITH NO
       SIGNIFICANT WEATHER AND/OR OBSTRUCTIONS TO VISIBILITY.

  * THESE STATIONS DO NOT REPORT WEATHER SUCH AS RAIN...SNOW OR FOG.

NEZ001>004-019>022-054>056-122200-
NEBRASKA PANHANDLE

CITY           SKY/WX    TMP DP  RH WIND       PRES   REMARKS
SCOTTSBLUFF    PTSUNNY   80  62  54 VRB3      30.21F
ALLIANCE       SUNNY     80  58  46 VRB6      30.20F
CHADRON        MOSUNNY   83  59  44 SE8       30.15F
KIMBALL        SUNNY     78  57  47 N12G18    30.24F
SIDNEY         PTSUNNY   80  60  50 N9        30.23F
$$

NEZ057>060-069>072-079>082-122200-
SOUTHWEST NEBRASKA

CITY           SKY/WX    TMP DP  RH WIND       PRES   REMARKS
NORTH PLATTE   MOSUNNY   82  65  56 N9        30.10S
IMPERIAL       MOSUNNY   85  64  49 N13       30.13F
LEXINGTON      CLOUDY    78  68  72 N9        30.09R
MCCOOK         PTSUNNY   87  69  54 E13G20    30.07S HX  91
OGALLALA       CLOUDY    81  62  53 NE7       30.14F
$$

NEZ005>010-023>029-035>040-094-122200-
NORTH CENTRAL NEBRASKA

CITY           SKY/WX    TMP DP  RH WIND       PRES   REMARKS
VALENTINE      MOSUNNY   82  66  58 N5        30.11F
AINSWORTH      MOSUNNY   79  66  65 NW6       30.10S
BROKEN BOW     PTSUNNY   80  68  66 NE9       30.09S
O`NEILL        MOSUNNY   80  64  58 NE8       30.07S
ORD            CLOUDY    77  68  73 E6        30.06F
THEDFORD       PTSUNNY   83  66  55 NE9       30.12S
$$

NEZ041-046>049-061>064-073>077-083>087-122200-
SOUTH CENTRAL NEBRASKA

CITY           SKY/WX    TMP DP  RH WIND       PRES   REMARKS
GRAND ISLAND   PTSUNNY   80  70  71 N15       30.05S
AURORA         MOSUNNY   81  71  72 N10       30.03F
HASTINGS       MOSUNNY   83  68  60 N14       30.03S
HEBRON         SUNNY     96  65  36 NW5       29.96F HX  98
HOLDREGE       MOSUNNY   80  68  67 NE16      30.06S
KEARNEY *      CLOUDY    81  68  65 N12       30.07S
YORK           MOSUNNY   82  72  69 N13       30.02S
$$

NEZ011>018-030>034-042>045-122200-
NORTHEAST NEBRASKA

CITY           SKY/WX    TMP DP  RH WIND       PRES   REMARKS
NORFOLK        PTSUNNY   76  67  73 N6        30.04S
ALBION         PTSUNNY   76  66  71 NE6       30.05F
BLAIR          MOSUNNY   79  66  64 N13       29.99F
FREMONT        MOSUNNY   79  69  72 N10       30.01S
TEKAMAH        CLOUDY    76  69  79 N10       30.01S
WAYNE          PTSUNNY   77  70  79 NE8       30.03S
$$

NEZ050>053-065>068-078-088>093-122200-
SOUTHEAST NEBRASKA

CITY           SKY/WX    TMP DP  RH WIND       PRES   REMARKS
LINCOLN        MOSUNNY   90  73  57 N13       29.98S HX  98
OMAHA EPPLEY   PTSUNNY   83  71  67 N15       29.97S
BEATRICE       PTSUNNY   90  71  53 NW7       29.95F HX  96
FALLS CITY     MOSUNNY   96  70  42 SW14G23   29.93F HX 102
NEBRASKA CITY  PTSUNNY   91  71  53 W9        29.95F HX  97
PLATTSMOUTH    SUNNY     90  69  50 W5        29.96F HX  94
$$

NEZ044-045-051>053-067-122200-
OMAHA AREA

CITY           SKY/WX    TMP DP  RH WIND       PRES   REMARKS
OMAHA EPPLEY   PTSUNNY   83  71  67 N15       29.97S
BLAIR          MOSUNNY   79  66  64 N13       29.99F
FREMONT        MOSUNNY   79  69  72 N10       30.01S
MILLARD        MOSUNNY   83  72  70 N6        29.97S
PLATTSMOUTH    SUNNY     90  69  50 W5        29.96F HX  94
WAHOO          CLOUDY    82  70  68 N10G18    30.00R
$$


USA.gov is the U.S. government's official web portal to all federal, state and local government web resources and services.